Total_Precipitation_Accumulation
0.02 0.06 0.07 0.14 0.10 0.03 0.05 0.08 0.03 0.03 0.04 0.01 0.00 0.00 0.00 0.00 0.01 0.05 0.10 0.23 0.42 0.47 0.35 0.24 0.16 0.11 0.10 0.08 0.07 0.05 0.03 0.03 0.03 0.03 0.04 0.04 0.04 0.04 0.02 0.01 0.05 0.07 0.07
0.02 0.06 0.05 0.07 0.05 0.05 0.08 0.04 0.04 0.04 0.05 0.01 0.00 0.00 0.00 0.00 0.00 0.03 0.10 0.19 0.36 0.54 0.61 0.47 0.36 0.27 0.19 0.13 0.09 0.07 0.05 0.04 0.04 0.06 0.07 0.05 0.05 0.04 0.03 0.02 0.06 0.10 0.10
0.03 0.06 0.04 0.03 0.05 0.07 0.07 0.07 0.09 0.07 0.07 0.02 0.01 0.00 0.00 0.00 0.00 0.00 0.03 0.09 0.15 0.24 0.41 0.49 0.51 0.45 0.29 0.16 0.10 0.06 0.04 0.03 0.04 0.05 0.06 0.05 0.04 0.03 0.03 0.03 0.06 0.06 0.07
0.02 0.06 0.06 0.04 0.11 0.14 0.11 0.09 0.06 0.05 0.07 0.04 0.03 0.01 0.00 0.00 0.00 0.00 0.01 0.01 0.01 0.02 0.04 0.08 0.11 0.20 0.27 0.25 0.19 0.10 0.06 0.04 0.03 0.03 0.03 0.02 0.02 0.03 0.03 0.03 0.03 0.04 0.05
0.03 0.08 0.09 0.05 0.07 0.16 0.16 0.11 0.07 0.10 0.05 0.05 0.03 0.02 0.00 0.00 0.00 0.00 0.00 0.00 0.00 0.00 0.00 0.00 0.00 0.01 0.04 0.11 0.18 0.17 0.12 0.07 0.04 0.03 0.02 0.01 0.01 0.03 0.03 0.02 0.02 0.03 0.04
0.07 0.09 0.11 0.07 0.06 0.16 0.23 0.16 0.15 0.11 0.09 0.09 0.05 0.02 0.00 0.00 0.00 0.00 0.00 0.00 0.00 0.00 0.00 0.00 0.00 0.00 0.00 0.01 0.03 0.08 0.11 0.08 0.06 0.04 0.03 0.01 0.01 0.01 0.02 0.02 0.03 0.03 0.03
0.15 0.14 0.13 0.15 0.14 0.17 0.28 0.28 0.24 0.17 0.11 0.07 0.09 0.05 0.01 0.00 0.00 0.00 0.00 0.00 0.00 0.00 0.00 0.00 0.00 0.00 0.00 0.00 0.00 0.01 0.04 0.05 0.05 0.04 0.03 0.02 0.01 0.02 0.02 0.01 0.02 0.03 0.03
0.30 0.21 0.18 0.24 0.19 0.19 0.36 0.35 0.27 0.17 0.11 0.05 0.06 0.09 0.04 0.02 0.01 0.00 0.00 0.00 0.00 0.00 0.00 0.00 0.00 0.00 0.00 0.00 0.00 0.00 0.00 0.02 0.04 0.04 0.03 0.02 0.02 0.02 0.01 0.01 0.03 0.06 0.03
0.50 0.38 0.30 0.30 0.25 0.22 0.32 0.36 0.30 0.18 0.12 0.03 0.02 0.04 0.05 0.05 0.02 0.00 0.00 0.00 0.00 0.00 0.00 0.00 0.00 0.00 0.00 0.00 0.00 0.00 0.00 0.00 0.02 0.04 0.03 0.02 0.02 0.02 0.02 0.02 0.05 0.06 0.03
0.59 0.53 0.44 0.39 0.29 0.18 0.19 0.26 0.35 0.27 0.19 0.08 0.03 0.02 0.02 0.03 0.02 0.01 0.00 0.00 0.00 0.00 0.00 0.00 0.00 0.00 0.00 0.00 0.00 0.00 0.00 0.00 0.01 0.02 0.03 0.04 0.04 0.03 0.03 0.03 0.06 0.07 0.05
0.51 0.43 0.42 0.41 0.31 0.21 0.19 0.22 0.32 0.34 0.23 0.16 0.08 0.07 0.05 0.03 0.01 0.01 0.02 0.01 0.00 0.00 0.00 0.00 0.00 0.00 0.00 0.00 0.00 0.00 0.00 0.00 0.00 0.01 0.02 0.03 0.05 0.05 0.04 0.04 0.04 0.05 0.07
0.48 0.38 0.34 0.37 0.41 0.35 0.27 0.23 0.27 0.29 0.27 0.26 0.20 0.13 0.10 0.05 0.02 0.01 0.03 0.03 0.01 0.00 0.00 0.00 0.00 0.00 0.00 0.00 0.00 0.00 0.00 0.00 0.00 0.01 0.01 0.02 0.03 0.04 0.04 0.05 0.03 0.03 0.05
0.49 0.45 0.40 0.40 0.42 0.41 0.41 0.38 0.30 0.24 0.21 0.20 0.23 0.21 0.21 0.18 0.08 0.03 0.02 0.02 0.02 0.00 0.00 0.00 0.00 0.00 0.00 0.00 0.00 0.00 0.00 0.00 0.00 0.00 0.01 0.01 0.02 0.02 0.04 0.08 0.10 0.12 0.19
0.34 0.36 0.39 0.41 0.43 0.43 0.42 0.41 0.33 0.26 0.21 0.17 0.20 0.25 0.29 0.31 0.22 0.10 0.05 0.04 0.04 0.02 0.00 0.00 0.00 0.00 0.00 0.00 0.00 0.00 0.00 0.00 0.00 0.00 0.00 0.01 0.01 0.02 0.03 0.06 0.10 0.17 0.37
0.21 0.20 0.24 0.32 0.38 0.42 0.44 0.40 0.33 0.27 0.21 0.16 0.16 0.17 0.18 0.22 0.23 0.16 0.08 0.05 0.07 0.07 0.07 0.03 0.00 0.00 0.00 0.00 0.00 0.00 0.00 0.00 0.00 0.00 0.00 0.00 0.01 0.01 0.01 0.02 0.03 0.04 0.09
0.19 0.21 0.22 0.25 0.30 0.34 0.41 0.42 0.40 0.35 0.25 0.17 0.11 0.09 0.10 0.14 0.19 0.19 0.17 0.08 0.04 0.07 0.10 0.05 0.00 0.00 0.00 0.00 0.00 0.00 0.00 0.00 0.00 0.00 0.00 0.00 0.01 0.01 0.01 0.01 0.01 0.01 0.01
0.28 0.23 0.20 0.26 0.26 0.25 0.29 0.36 0.43 0.44 0.35 0.27 0.16 0.11 0.11 0.11 0.20 0.23 0.23 0.14 0.08 0.06 0.09 0.05 0.00 0.00 0.00 0.00 0.00 0.00 0.00 0.00 0.00 0.00 0.00 0.00 0.01 0.01 0.00 0.00 0.00 0.00 0.00
0.15 0.15 0.16 0.19 0.21 0.24 0.28 0.38 0.44 0.43 0.37 0.27 0.20 0.14 0.13 0.12 0.16 0.20 0.22 0.17 0.12 0.07 0.07 0.07 0.01 0.00 0.00 0.00 0.00 0.00 0.00 0.00 0.00 0.00 0.00 0.00 0.01 0.01 0.01 0.00 0.00 0.00 0.00
0.08 0.10 0.13 0.16 0.18 0.21 0.28 0.33 0.38 0.37 0.28 0.21 0.16 0.12 0.14 0.15 0.14 0.17 0.19 0.17 0.13 0.08 0.05 0.06 0.03 0.01 0.00 0.00 0.00 0.00 0.00 0.00 0.00 0.00 0.00 0.00 0.00 0.01 0.01 0.00 0.00 0.00 0.00
0.03 0.04 0.06 0.07 0.10 0.13 0.18 0.21 0.25 0.32 0.28 0.19 0.13 0.11 0.12 0.10 0.08 0.11 0.15 0.15 0.15 0.11 0.07 0.05 0.03 0.01 0.00 0.00 0.00 0.00 0.00 0.00 0.00 0.00 0.00 0.00 0.00 0.00 0.01 0.00 0.00 0.00 0.00
0.01 0.02 0.05 0.06 0.08 0.10 0.11 0.16 0.18 0.24 0.26 0.22 0.17 0.15 0.11 0.10 0.09 0.09 0.11 0.17 0.19 0.16 0.12 0.07 0.03 0.01 0.00 0.00 0.00 0.00 0.00 0.00 0.00 0.00 0.00 0.00 0.00 0.00 0.00 0.00 0.00 0.00 0.00
0.01 0.01 0.02 0.05 0.09 0.09 0.13 0.17 0.20 0.24 0.23 0.18 0.14 0.16 0.20 0.17 0.11 0.06 0.07 0.12 0.15 0.17 0.14 0.09 0.05 0.02 0.01 0.01 0.00 0.00 0.00 0.00 0.00 0.00 0.00 0.00 0.00 0.00 0.00 0.00 0.00 0.00 0.00
0.01 0.01 0.02 0.05 0.08 0.11 0.16 0.15 0.21 0.25 0.22 0.17 0.12 0.13 0.17 0.20 0.24 0.20 0.13 0.09 0.09 0.15 0.21 0.19 0.13 0.08 0.07 0.04 0.01 0.00 0.00 0.00 0.00 0.00 0.00 0.00 0.00 0.00 0.00 0.00 0.00 0.00 0.00
0.03 0.03 0.02 0.03 0.06 0.13 0.15 0.13 0.22 0.27 0.26 0.25 0.20 0.17 0.17 0.17 0.20 0.29 0.31 0.23 0.17 0.18 0.27 0.20 0.16 0.22 0.18 0.09 0.03 0.01 0.00 0.00 0.00 0.00 0.00 0.00 0.00 0.00 0.00 0.00 0.00 0.00 0.00
0.11 0.08 0.05 0.04 0.07 0.11 0.10 0.09 0.13 0.22 0.24 0.22 0.19 0.18 0.16 0.16 0.20 0.26 0.28 0.26 0.23 0.21 0.37 0.39 0.37 0.31 0.21 0.10 0.03 0.01 0.00 0.00 0.00 0.00 0.00 0.00 0.00 0.00 0.00 0.00 0.00 0.00 0.00
0.21 0.15 0.10 0.07 0.08 0.07 0.08 0.04 0.03 0.08 0.14 0.20 0.21 0.18 0.19 0.18 0.19 0.18 0.16 0.18 0.19 0.23 0.25 0.24 0.26 0.24 0.18 0.12 0.04 0.01 0.01 0.00 0.00 0.00 0.00 0.00 0.00 0.00 0.00 0.00 0.00 0.00 0.00